Home > Weather > Chhindwara > Past weeks

Flag for India Weather for the Past 2 Weeks in Chhindwara, Madhya Pradesh, India

Now
73 °F

Haze.


Feels Like: 77 °F
Forecast: 60 / 84 °F
Wind: 2 mph from South

Location: Nagpur Sonegaon

Current Time: Feb 11, 2016 at 2:10:38 AM

Latest Report: Feb 11, 2016 at 1:30 AM


Visibility: 2 mi

Pressure: 29.83 "Hg (27.56 "Hg at 687m altitude)

Humidity: 57%

Dew point: 57 °F

Location of ChhindwaraLocation

Historic Weather in Chhindwara — Graph

°F

Chhindwara Temperature Yesterday

Maximum temperature yesterday: 90 °F (at 1:00 PM)
Minimum temperature yesterday: 59 °F (at 5:30 AM)
Average temperature yesterday: 75 °F

High & Low Weather Summary for the Past Weeks

 TemperatureHumidityPressure
High97 °F (Jan 31, 3:30 PM)100% (Feb 3, 7:30 AM)30.15 "Hg (Feb 3, 7:30 AM)
Low57 °F (Feb 6, 6:30 AM)17% (Feb 8, 3:00 PM)29.86 "Hg (Feb 6, 3:00 PM)
Average76 °F42%29.99 "Hg
* Reported Jan 27 12:30 AM — Feb 11 12:30 AM, Chhindwara, Weather by CustomWeather, © 2016

Note: Actual official high and low records may vary slightly from our data, if they occured in-between our weather recording intervals... More about our weather records

Advertising

Chhindwara Weather History for the Previous 24 Hours

 ConditionsComfort  
Time TempWeatherWind HumidityBarometerVisibility
12:30 AM
Thu, Feb 11
77 °FHaze.3 mph54%29.86 "Hg1 mi
12:00 AM75 °FHaze.3 mph57%29.86 "Hg1 mi
11:30 PM
Wed, Feb 10
82 °FHaze.3 mph45%29.86 "Hg1 mi
11:00 PM77 °FHaze.3 mph54%29.86 "Hg1 mi
10:30 PM77 °FHaze.3 mph54%29.86 "Hg1 mi
10:00 PM77 °FHaze.No wind51%29.89 "Hg1 mi
9:30 PM77 °FHaze.No wind51%29.89 "Hg1 mi
9:00 PM79 °FHaze.2 mph51%29.86 "Hg1 mi
8:30 PM81 °FHaze.No wind45%29.86 "Hg1 mi
8:00 PM81 °FHaze.No wind45%29.86 "Hg1 mi
7:30 PM82 °FHaze.No wind42%29.86 "Hg1 mi
7:00 PM84 °FHaze.2 mph40%29.86 "Hg1 mi
1:00 PM90 °FHaze.7 mph33%29.92 "Hg1 mi
12:30 PM88 °FHaze.8 mph31%29.95 "Hg1 mi
12:00 PM86 °FHaze.3 mph31%29.95 "Hg1 mi
11:30 AM84 °FHaze.2 mph31%29.98 "Hg1 mi
11:00 AM82 °FHaze.3 mph30%30.01 "Hg1 mi
10:30 AM81 °FHaze.3 mph32%30.01 "Hg1 mi
9:30 AM75 °FFog.5 mph41%30.01 "Hg1 mi
9:00 AM73 °FFog.2 mph44%29.98 "Hg1 mi
7:00 AM66 °FFog.No wind56%29.95 "Hg1 mi
6:30 AM64 °FFog.No wind60%29.95 "Hg1 mi
6:00 AM64 °FHaze.No wind60%29.92 "Hg1 mi
5:30 AM59 °FHaze.No wind82%29.92 "Hg1 mi
5:00 AM64 °FHaze.No wind56%29.92 "Hg2 mi
4:30 AM64 °FHaze.No wind52%29.92 "Hg2 mi
4:00 AM64 °FHaze.No wind56%29.92 "Hg2 mi
2:30 AM66 °FHaze.No wind49%29.92 "Hg2 mi
Weather by CustomWeather, © 2016

See weather overviewHow to use our weather pages